{"data":{"norad_id":60528,"intl_designator":"2024-149BN","name":"ERNST","alt_names":[],"object_type":"PAYLOAD","status":"ACTIVE","operator":null,"country":"GER","launch_date":"2024-08-16","launch_site_code":"AFWTR","launch_vehicle":null,"mission":null,"orbit_class":"UNKNOWN","rcs_meters":null,"size_class":null,"mass_kg":null,"dimensions":null,"purposes":[],"wikipedia_slug":null,"has_3d_model":false,"image_url":null,"decayed_at":null,"tle_current":{"epoch":"2026-05-25T05:11:21.179904Z","epoch_age_seconds":52519,"freshness":"FRESH","line1":"1 60528U 24149BN  26145.21621736  .00013847  00000+0  36601-3 0  9998","line2":"2 60528  97.3804 228.7754 0006245  33.2563 326.9073 15.38516704 98746","mean_motion":15.38516704,"eccentricity":0.0006245,"inclination_deg":97.3804,"raan_deg":228.7754,"arg_perigee_deg":33.2563,"mean_anomaly_deg":326.9073,"bstar":0.00036601,"rev_number":9874,"period_min":93.596643848984,"perigee_km":446.23033911754,"apogee_km":454.75930026033,"semimajor_km":6828.6318196889,"source":"CELESTRAK","updated_at":"2026-05-25T13:38:02.125932Z"}}}